Flag for Morocco Weather past 2 weeks in Rabat, Morocco

Now
54 °F

Clear.


Feels Like: 52 °F
Forecast: 51 / 72 °F
Wind: 6 mph from Northeast

Location: Rabat-Sale

Current Time: Mar 7, 2015 at 4:49:32 AM

Latest Report: Mar 7, 2015 at 4:00 AM


Visibility: 3 mi

Pressure: 30.15 "Hg

Humidity: 63%

Dew point: 41 °F

Location of RabatLocation

Historic Weather in Rabat — Graph

°F

Rabat temperature yesterday

Maximum temperature yesterday: 77 °F (at 4:30 PM)
Minimum temperature yesterday: 46 °F (at 2:00 AM)
Average temperature yesterday: 61 °F

Past Weeks' High & Low Weather Summary

 TemperatureHumidityPressure
High77 °F (Mar 6, 4:30 PM)100% (Feb 27, 12:00 AM)30.51 "Hg (Feb 27, 12:00 AM)
Low41 °F (Feb 20, 6:00 AM)42% (Mar 6, 5:00 PM)29.95 "Hg (Feb 21, 2:00 PM)
Average55 °F81%30.25 "Hg
* Reported Feb 20 3:00 AM — Mar 7 3:30 AM, Rabat, Weather by CustomWeather, © 2015

Note: Actual official high and low records may vary slightly from our data, if they occured in-between our weather recording intervals... More about our weather records

Advertising

Rabat weather history for previous 24 hours

 ConditionsComfort  
Time TempWeatherWind HumidityBarometerVisibility
3:30 AM
Sat, Mar 7
54 °FClear.5 mph63%30.15 "Hg3 mi
3:00 AM50 °FClear.2 mph76%30.15 "Hg3 mi
2:30 AM54 °FClear.5 mph63%30.15 "Hg3 mi
2:00 AM52 °FClear.1 mph67%30.18 "Hg3 mi
1:30 AM52 °FClear.2 mph72%30.18 "Hg3 mi
1:00 AM54 °FClear.No wind67%30.18 "Hg3 mi
12:30 AM55 °FClear.2 mph59%30.15 "Hg3 mi
12:00 AM59 °FClear.3 mph51%30.15 "Hg3 mi
11:30 PM
Fri, Mar 6
57 °FClear.2 mph55%30.18 "Hg3 mi
11:00 PM61 °FClear.No wind52%30.18 "Hg3 mi
10:00 PM63 °FClear.3 mph52%30.18 "Hg3 mi
9:30 PM63 °FClear.3 mph56%30.15 "Hg3 mi
8:30 PM63 °FClear.2 mph59%30.15 "Hg3 mi
8:00 PM61 °FClear.2 mph68%30.15 "Hg3 mi
7:30 PM59 °FClear.No wind82%30.15 "Hg3 mi
7:00 PM63 °FClear.No wind77%30.15 "Hg3 mi
6:30 PM66 °FClear.No wind68%30.12 "Hg3 mi
6:00 PM73 °FClear.2 mph50%30.12 "Hg4 mi
5:00 PM77 °FClear.9 mph42%30.12 "Hg4 mi
4:30 PM77 °FClear.9 mph44%30.12 "Hg4 mi
4:00 PM75 °FClear.8 mph47%30.12 "Hg4 mi
3:30 PM75 °FClear.7 mph54%30.12 "Hg4 mi
3:00 PM73 °FClear.8 mph50%30.12 "Hg4 mi
2:30 PM73 °FClear.7 mph53%30.12 "Hg4 mi
2:00 PM72 °FClear.7 mph53%30.12 "Hg4 mi
1:30 PM72 °FClear.8 mph53%30.15 "Hg4 mi
1:00 PM72 °FClear.7 mph53%30.45 "Hg4 mi
12:30 PM72 °FClear.7 mph57%30.15 "Hg4 mi
12:00 PM72 °FClear.6 mph61%30.15 "Hg4 mi
11:30 AM70 °FClear.6 mph64%30.15 "Hg5 mi
11:00 AM72 °FClear.3 mph57%30.18 "Hg5 mi
10:30 AM68 °FClear.2 mph56%30.15 "Hg5 mi
10:00 AM66 °FClear.2 mph64%30.15 "Hg5 mi
9:30 AM64 °FClear.1 mph68%30.15 "Hg5 mi
9:00 AM61 °FClear.1 mph72%30.15 "Hg5 mi
8:30 AM59 °FClear.No wind77%30.15 "Hg3 mi
8:00 AM52 °FClear.3 mph88%30.15 "Hg3 mi
7:30 AM48 °FClear.2 mph87%30.12 "Hg3 mi
7:00 AM48 °FFog.5 mph87%30.12 "Hg2 mi
6:30 AM48 °FFog.3 mph94%30.12 "Hg2 mi
6:00 AM48 °FFog.3 mph87%30.09 "Hg2 mi
5:30 AM46 °FFog.No wind87%30.09 "Hg2 mi
5:00 AM46 °FFog.No wind87%30.09 "Hg2 mi
4:30 AM48 °FFog.No wind82%30.09 "Hg2 mi
4:00 AM50 °FFog.No wind82%30.09 "Hg2 mi
Weather by CustomWeather, © 2015

See weather overviewHow to use our weather pages